KCID

The Eastern Iowa Airport

Airport
ICAO code
KCID
IATA Code
CID
Summary
ICAO Region
NAM
ICAO Territory
Location

Cedar Rapids, Iowa,

Serving
Cedar Rapids
Elevation
869 ft
Coordinates
41° 53' 7" N , 91° 42' 50" W
KCC
Airport CFIT
Altimeter Temperature Error Correction
Metar
KCID 201952Z 00000KT 10SM FEW024 SCT030 BKN060 27/22 A3025 RMK AO2 SLP238 T02720217

Description

The Eastern Iowa Airport is a commercial airport in Cedar Rapids, Iowa,.

Climatology

Humid continental climate (Köppen climate classification Dfa) - characterized by four seasons: cold, windy, snowy winters, mild springs, hot, humid summers, and crisp and relatively short autumns. Precipitation reaches its lowest in January and February and peaks in summer and latter half of spring.

Airport map

Aerial View

SKYbrary Partners:

Safety knowledge contributed by: